#timestamp,LO_Frequency,Hit,StdDev 
1609920015.8,286047002.5,N
1609920035.6,286047002.3,N
1609920055.5,286046998.1,N
1609920075.3,286046999.8,N
1609920095.2,286047002.2,N
1609920115.9,286047001.8,N
1609920135.7,286047001.9,N
1609920155.6,286047003.7,Y
1609920175.4,286047002.2,P
1609920195.2,286047000.1,N
1609920215.1,286047002.6,N
1609920216.0,286047002.6,N
1609920235.8,286047000.1,N
1609920255.7,286047000.7,N
1609920275.5,286047000.2,N
1609920295.3,286047001.3,N
1609920315.2,286047002.2,N
1609920335.0,286047000.3,N
1609920335.9,286047000.3,N
1609920355.7,286047000.1,N
1609920375.6,286047002.2,N
1609920395.4,286047002.4,N
1609920415.3,286047000.0,N
1609920435.1,286047000.0,N
1609920436.0,286047000.0,N
1609920455.8,286047002.2,N
1609920475.7,286047001.6,N
1609920495.5,286046999.9,N
1609920515.3,286047000.6,N
1609920535.2,286047000.0,N
1609920555.0,286047001.3,N
1609920555.9,286047001.3,N
1609920575.8,286047000.0,N
1609920595.6,286047000.6,N
1609920615.4,286047000.7,N
1609920635.3,286047002.8,N
1609920655.1,286047002.0,N
1609920675.9,286047002.8,N
1609920695.7,286046999.9,N
1609920715.5,286047001.6,N
1609920735.4,286047001.5,N
1609920755.2,286047003.1,Y
1609920775.0,286047002.1,P
1609920775.9,286047002.1,P
1609920795.8,286047000.2,N
1609920815.6,286047000.4,N
1609920835.5,286047000.3,N
1609920855.3,286046998.6,N
1609920875.1,286047000.3,N
1609920895.9,286047002.4,N
1609920915.7,286047000.6,N
1609920935.5,286047000.0,N
1609920955.4,286047002.1,N
1609920975.2,286047001.5,N
1609920995.0,286047001.6,N
1609920996.0,286047001.6,N
1609921015.8,286047001.3,N
1609921035.6,286047001.6,N
1609921055.5,286047002.2,N
1609921075.3,286047000.3,N
1609921095.1,286047001.2,N
1609921115.9,286046998.8,N
1609921135.7,286046998.3,N
1609921155.6,286047000.7,N
1609921175.4,286047000.9,N
1609921195.2,286046998.1,N
1609921215.1,286047000.0,N
1609921216.0,286047000.0,N
1609921235.8,286047001.2,N
1609921255.6,286046998.1,N
1609921275.5,286047000.1,N
1609921295.3,286047000.2,N
1609921315.1,286047001.8,N
1609921335.9,286047000.0,N
1609921355.7,286047002.7,N
1609921375.6,286047000.4,N
1609921395.4,286047000.9,N
1609921415.2,286047000.4,N
1609921435.1,286047000.5,N
1609921436.0,286047000.5,N
1609921455.8,286047000.8,N
1609921475.7,286047000.8,N
1609921495.5,286046998.8,N
1609921515.3,286046999.3,N
1609921535.2,286047000.7,N
1609921555.9,286046998.4,N
1609921575.7,286046999.8,N
1609921595.6,286047000.3,N
1609921615.4,286047000.1,N
1609921635.2,286046999.9,N
1609921655.1,286047002.3,N
1609921656.0,286047002.3,N
1609921675.8,286047002.3,N
1609921695.7,286047001.8,N
1609921715.5,286047001.9,N
1609921735.3,286047004.3,Y
1609921755.2,286047002.5,P
1609921775.0,286047002.7,N
1609921775.9,286047002.7,N
1609921795.8,286046998.6,N
1609921815.6,286047001.2,N
1609921835.4,286047001.2,N
1609921855.3,286047001.1,N
1609921875.1,286047002.7,N
1609921895.8,286047002.2,N
1609921915.7,286047000.2,N
1609921935.5,286047002.2,N
1609921955.4,286047002.0,N
1609921975.2,286047001.8,N
1609921995.0,286047003.7,Y
1609921995.9,286047003.7,P
1609922015.8,286047004.3,P
1609922035.6,286047004.3,P
1609922055.4,286047003.9,Y
1609922075.3,286046998.1,P
1609922095.1,286046998.4,N
1609922115.9,286046999.3,N
1609922135.7,286046998.8,N
1609922155.5,286046999.2,N
1609922175.4,286046996.8,N
1609922195.2,286046997.2,N
1609922215.0,286046997.2,N
1609922215.9,286046997.2,N
1609922235.8,286046999.2,N
1609922255.6,286046997.1,N
1609922275.5,286046998.4,N
1609922295.3,286046994.9,Y
1609922315.1,286046997.9,P
1609922335.9,286046995.0,P
1609922355.7,286046997.2,N
1609922375.5,286047001.0,N
1609922395.4,286047000.5,N
1609922415.2,286047001.0,N
1609922435.1,286046999.2,N
1609922436.0,286046999.2,N
1609922455.8,286046999.2,N
1609922475.6,286047000.5,N
1609922495.5,286046998.1,N
1609922515.3,286046998.9,N
1609922535.1,286046996.8,N
1609922555.9,286046998.4,N
1609922575.7,286047000.8,N
1609922595.6,286047001.2,N
1609922615.4,286046998.9,N
1609922635.2,286046998.4,N
1609922655.1,286047000.7,N
1609922656.0,286047000.7,N
1609922675.8,286046999.8,N
1609922695.7,286047001.0,N
1609922715.5,286047009.9,Y
1609922735.3,286047011.3,P
1609922755.2,286047010.0,N
1609922775.0,286047008.4,N
1609922775.9,286047008.4,N
1609922795.7,286047007.5,N
1609922815.6,286047005.8,N
1609922835.4,286047003.6,N
1609922855.3,286047004.4,N
1609922875.1,286047001.5,N
1609922876.0,286047001.5,N
1609922895.8,286047001.3,N
1609922915.7,286047004.4,N
1609922935.5,286046999.7,N
1609922955.3,286047000.6,N
1609922975.2,286046999.9,N
1609922995.0,286047000.3,N
1609922995.9,286047000.3,N
1609923015.8,286047002.8,N
1609923035.6,286047000.1,N
1609923055.4,286047002.0,N
1609923075.3,286047001.5,N
1609923095.1,286047002.2,N
1609923115.8,286047001.8,N
1609923135.7,286047001.6,N
1609923155.5,286046999.9,N
1609923175.4,286046999.8,N
1609923195.2,286047000.7,N
1609923215.0,286047000.2,N
1609923215.9,286047000.2,N
1609923235.8,286047000.4,N
1609923255.6,286046998.2,N
1609923275.4,286047001.2,N
1609923295.3,286047000.5,N
1609923315.1,286047001.1,N
1609923335.9,286047001.2,N
1609923355.7,286046998.5,N
1609923375.5,286046999.8,N
1609923395.4,286047002.3,N
1609923415.2,286047001.3,N
1609923435.0,286047000.0,N
1609923435.9,286047000.0,N
1609923455.8,286047000.0,N
1609923475.6,286047000.7,N
1609923495.5,286047002.4,N
1609923515.3,286047001.9,N
1609923535.1,286047002.1,N
1609923555.9,286046999.8,N
1609923575.7,286046998.7,N
1609923595.5,286047000.5,N
